BREEZE-M DEB, 43407

Orbit data source: Space-Track

BREEZE-M DEB, 43407 is space debris in HEO originally from a launch on Mon, 15 Apr 2013 UTC launched from the Tyuratam Missile And Space Complex (TTMTR). Debris objects in space refer to the collection of defunct objects orbiting the Earth. Examples of debris include non-operational satellites, rocket bodies, and fragments generated from explosions, collisions, or faulty payload assembly.

Loading next visibility...
Identifier
43407, 2013-014D
Orbit
HEO
Last TLE update
14 hours ago
Origin
Manufacturer
Khrunichev
Mission
Spacecraft
Bus & Motor
Unknown
Mass
Unknown
Launch date (UTC)
2013-04-15 (12 years ago)
Launch vehicle
Unknown
Launch site
Tyuratam Missile And Space Complex (TTMTR)
Object type
Payload
Rocket body
Debris
Shape & HBR
Unknown
Radar Cross Section
Small (<0.1 m²)

Expand to show TLE details & history

TLE from 14 hours ago
0 BREEZE-M DEB
1 43407U 13014D   25183.61147943 -.00000093  00000-0  00000-0 0  9994
2 43407  15.2967  28.0198 4827624 164.1983 218.7160  1.91514643 68668
Epoch: 2025-07-02T14:40Z
TLE epoch observation values (Epoch: 2025-07-02T14:40:31.822Z)
Latitude
-0.00001°
Longitude
-112.99952°
Altitude
32,829.591 km
Speed
2.404 km/s
True Right ascension
01h 52m 05s
True Declination
0° 00' 00"
Sunlit
Object was in daylight at epoch
Visualization orbit readout
Latitude
7.20736°
Longitude
-85.57659°
Altitude
25,799.505 km
Speed
3.197 km/s
Apparent Right ascension
03h 51m 19s
Apparent Declination
0° 03' 40"
Sunlit
Object is in daylight
Visualization observer readout
Local Sidereal Time
16:54:19
Azimuth
23.753° NE
Elevation
-47.636°
Doppler factor
1
Orbital elements
Apogee altitude
34,238.723 km
Perigee altitude
7,790.395 km
Semi-major axis
27,392.696 km
Eccentricity
0.48276
Inclination
15.2967°
RAAN
28.0198°
Arg. of periapsis
164.1983°
True anomaly
Unknown
Mean anomaly
218.716°
Eccentric anomaly
Unknown
Mean motion
0.47873 °/min
Orbital period
751.99 mins
BSTAR
0
Loading maneuver chart data...
Loading SW <> Apogee altitude chart data...
Loading historical data...
Loading historical data...
Loading historical data...
Loading historical data...
Loading historical data...
Loading historical data...
Loading historical data...
Other satellites on launch #14 in the year 2013 (2013-04-15 UTC)

BREEZE-M DEB Visibility forecast

Observer location: undefined°, undefined°

Span
Click to sort rows by Start time (UTC) header in descending order
Start Az.
Max El. time (UTC)
Max El. Az.
Max El.
End time (UTC)
End Az.
655 mins2025-07-03 09:30:51.751Z216.465° SW2025-07-03 19:29:51.751Z183.92° SSW39.154°2025-07-03 20:25:51.751Z111.626° ESE
|